Date String (YYYY-MM-DD hh:mm:ss) UTC,Instrument flags,Ambient pressure (hPa),Sample flow (lpm),Bypass flow (lpm),Sample temperature (°C),Ambient temperature (°C),ASC tube jacket temperature (°C),LED temperature (°C),Box temperature (°C),Sample RH (%),Span deviation,Mass concentration (μg/m³),Mass concentration (μg/m³),Mass concentration (μg/m³)
DateTimeUTC,F1_M11,P_M11,Q1_M11,Q2_M11,T1_M11,T2_M11,T3_M11,T4_M11,T5_M11,U1_M11,ZSPAN_M11,X0_M11,X2_M11,X1_M11
2022-10-08 23:00:00,,0833.1,5.00,0.00,29.9,26.6,00.0,38.7,31.4,17.6,-000.7,0017.33,0011.10,0010.23
2022-10-08 23:01:00,,0833.1,5.00,0.00,29.8,26.9,00.0,38.6,31.4,17.6,-000.8,0017.00,0011.01,0010.17
2022-10-08 23:02:00,,0833.1,5.00,0.00,29.8,27.3,00.0,38.6,31.5,17.5,-000.6,0016.74,0010.90,0010.13
2022-10-08 23:03:00,,0833.1,5.00,0.00,29.8,27.6,00.0,38.6,31.5,17.6,-000.4,0017.24,0010.93,0010.16
2022-10-08 23:04:00,,0833.1,5.00,0.00,29.8,27.9,00.0,38.6,31.5,17.6,-000.5,0017.59,0010.97,0010.21
2022-10-08 23:05:00,,0833.1,4.99,0.00,29.8,28.1,00.0,38.5,31.6,17.6,-000.9,0018.37,0010.97,0010.23
2022-10-08 23:06:00,,0833.2,5.00,0.00,29.8,28.3,00.0,38.5,31.6,17.6,-000.9,0018.89,0010.98,0010.21
2022-10-08 23:07:00,,0833.1,5.00,0.00,29.8,28.4,00.0,38.5,31.6,17.6,-000.8,0018.80,0010.98,0010.18
2022-10-08 23:08:00,,0833.1,4.98,0.00,29.8,28.6,00.0,38.5,31.7,17.5,-000.7,0018.88,0010.99,0010.19
2022-10-08 23:09:00,,0833.1,5.01,0.00,29.8,28.6,00.0,38.5,31.7,17.7,-000.5,0019.01,0011.05,0010.24
2022-10-08 23:10:00,,0833.1,4.99,0.00,29.8,28.7,00.0,38.5,31.8,17.4,-000.3,0018.94,0011.09,0010.30
2022-10-08 23:11:00,,0833.1,4.99,0.00,29.9,28.8,00.0,38.5,31.8,17.5,0000.0,0018.87,0011.20,0010.40
2022-10-08 23:12:00,,0833.1,5.00,0.00,29.9,28.9,00.0,38.6,31.8,17.4,-000.0,0018.95,0011.36,0010.53
2022-10-08 23:13:00,,0833.1,5.01,0.00,29.9,28.9,00.0,38.6,31.9,17.4,-000.2,0019.75,0011.45,0010.58
2022-10-08 23:14:00,,0833.2,4.99,0.00,29.9,29.0,00.0,38.6,31.9,17.3,-000.3,0019.48,0011.44,0010.58
2022-10-08 23:15:00,,0833.2,5.00,0.00,30.0,29.0,00.0,38.6,31.9,17.2,-000.4,0019.10,0011.37,0010.53
2022-10-08 23:16:00,,0833.2,5.00,0.00,30.0,29.0,00.0,38.6,31.9,17.3,-000.3,0017.95,0011.33,0010.50
2022-10-08 23:17:00,,0833.2,5.01,0.00,30.0,29.1,00.0,38.7,32.0,17.5,-000.4,0016.87,0011.27,0010.45
2022-10-08 23:18:00,,0833.2,4.99,0.00,30.1,29.1,00.0,38.7,32.0,17.4,-000.3,0017.06,0011.23,0010.42
2022-10-08 23:19:00,,0833.2,5.00,0.00,30.1,29.2,00.0,38.7,32.0,17.4,-000.4,0017.32,0011.19,0010.40
2022-10-08 23:20:00,,0833.1,5.00,0.00,30.1,29.2,00.0,38.7,32.0,17.2,-000.6,0018.74,0011.16,0010.37
2022-10-08 23:21:00,,0833.1,4.99,0.00,30.1,29.2,00.0,38.8,32.1,17.2,-000.6,0019.15,0011.16,0010.33
2022-10-08 23:22:00,,0833.2,5.01,0.00,30.2,29.3,00.0,38.8,32.1,17.2,-000.7,0019.83,0011.13,0010.31
2022-10-08 23:23:00,,0833.1,4.99,0.00,30.2,29.3,00.0,38.8,32.1,17.1,-000.7,0019.71,0011.08,0010.27
2022-10-08 23:24:00,,0833.1,5.00,0.00,30.2,29.3,00.0,38.8,32.1,17.2,-000.7,0019.41,0011.04,0010.22
2022-10-08 23:25:00,,0833.1,5.00,0.00,30.2,29.3,00.0,38.9,32.2,17.4,-000.7,0019.39,0011.01,0010.17
2022-10-08 23:26:00,,0833.1,4.99,0.00,30.3,29.3,00.0,38.9,32.2,17.3,-000.4,0019.64,0010.97,0010.14
2022-10-08 23:27:00,,0833.2,5.00,0.00,30.3,28.6,00.0,38.9,32.1,16.9,-000.2,0019.85,0010.92,0010.10
2022-10-08 23:28:00,,0833.1,5.01,0.00,30.2,27.2,00.0,38.9,32.0,16.9,-000.4,0019.42,0010.91,0010.12
2022-10-08 23:29:00,,0833.1,5.01,0.00,30.2,26.9,00.0,38.8,31.8,17.0,-000.5,0019.19,0010.92,0010.17
2022-10-08 23:30:00,,0833.1,5.00,0.00,30.1,27.1,00.0,38.8,31.7,17.2,-000.7,0019.00,0010.97,0010.17
2022-10-08 23:31:00,,0833.1,4.99,0.00,30.0,27.4,00.0,38.8,31.7,17.5,-000.7,0017.42,0010.91,0010.13
2022-10-08 23:32:00,,0833.1,5.00,0.00,30.0,27.7,00.0,38.8,31.7,17.6,-000.9,0017.00,0010.86,0010.10
2022-10-08 23:33:00,,0833.1,4.99,0.00,30.0,28.0,00.0,38.7,31.7,17.6,-000.9,0016.43,0010.82,0010.06
2022-10-08 23:34:00,,0833.1,4.99,0.00,30.0,28.2,00.0,38.7,31.7,17.5,-000.7,0016.44,0010.79,0010.03
2022-10-08 23:35:00,,0833.1,5.01,0.00,30.0,28.4,00.0,38.7,31.8,17.5,-000.4,0016.46,0010.76,0010.02
2022-10-08 23:36:00,,0833.1,4.99,0.00,30.0,28.6,00.0,38.7,31.8,17.4,-000.5,0016.59,0010.73,0010.02
2022-10-08 23:37:00,,0833.1,5.00,0.00,30.0,28.7,00.0,38.7,31.9,17.2,-000.8,0016.90,0010.75,0010.04
2022-10-08 23:38:00,,0833.1,5.00,0.00,30.0,28.8,00.0,38.7,31.9,17.2,-000.9,0017.43,0010.82,0010.09
2022-10-08 23:39:00,,0833.1,5.00,0.00,30.0,28.9,00.0,38.8,31.9,17.1,-000.4,0018.38,0010.91,0010.13
2022-10-08 23:40:00,,0833.1,5.00,0.00,30.1,28.9,00.0,38.8,31.9,17.2,-000.3,0018.60,0010.90,0010.12
2022-10-08 23:41:00,,0833.0,5.01,0.00,30.1,29.0,00.0,38.8,32.0,17.0,-000.1,0018.38,0010.88,0010.15
2022-10-08 23:42:00,,0833.0,5.00,0.00,30.1,29.0,00.0,38.8,32.0,16.9,0000.0,0018.55,0010.99,0010.20
2022-10-08 23:43:00,,0833.1,4.99,0.00,30.1,29.1,00.0,38.8,32.0,17.0,0000.2,0019.15,0011.05,0010.24
2022-10-08 23:44:00,,0833.0,5.00,0.00,30.1,29.1,00.0,38.8,32.0,17.2,0000.2,0019.21,0011.12,0010.30
2022-10-08 23:45:00,,0833.0,5.00,0.00,30.2,29.2,00.0,38.8,32.1,17.2,-000.2,0019.22,0011.17,0010.34
2022-10-08 23:46:00,,0833.0,4.99,0.00,30.2,29.2,00.0,38.9,32.1,17.0,-000.4,0018.70,0011.20,0010.38
2022-10-08 23:47:00,,0833.1,5.01,0.00,30.2,29.3,00.0,38.9,32.1,17.0,-000.2,0018.67,0011.26,0010.42
2022-10-08 23:48:00,,0833.0,4.99,0.00,30.2,29.0,00.0,38.9,32.1,16.8,-000.2,0018.24,0011.35,0010.50
2022-10-08 23:49:00,,0833.1,5.00,0.00,30.2,27.5,00.0,38.9,32.0,16.8,-000.2,0017.69,0011.42,0010.53
2022-10-08 23:50:00,,0833.0,5.00,0.00,30.2,26.8,00.0,38.8,31.9,17.0,-000.4,0016.99,0011.39,0010.54
2022-10-08 23:51:00,,0833.0,5.00,0.00,30.1,27.0,00.0,38.8,31.7,17.1,-000.4,0018.17,0011.42,0010.56
2022-10-08 23:52:00,,0833.0,5.00,0.00,30.0,27.2,00.0,38.8,31.7,17.2,-000.6,0018.96,0011.43,0010.56
2022-10-08 23:53:00,,0833.0,5.01,0.00,30.0,27.6,00.0,38.8,31.7,17.2,-000.8,0019.24,0011.40,0010.55
2022-10-08 23:54:00,,0833.0,5.00,0.00,30.0,27.8,00.0,38.7,31.7,17.0,-001.2,0018.97,0011.41,0010.57
2022-10-08 23:55:00,,0833.1,5.00,0.00,29.9,28.0,00.0,38.7,31.7,17.0,-001.4,0018.95,0011.41,0010.57
2022-10-08 23:56:00,,0833.1,5.01,0.00,29.9,28.2,00.0,38.7,31.7,17.1,-001.3,0018.99,0011.40,0010.57
2022-10-08 23:57:00,,0833.1,4.99,0.00,29.9,28.4,00.0,38.7,31.8,17.1,-001.4,0019.10,0011.42,0010.58
2022-10-08 23:58:00,,0833.1,4.99,0.00,30.0,28.6,00.0,38.7,31.8,17.1,-001.6,0019.72,0011.45,0010.61
2022-10-08 23:59:00,,0833.0,4.99,0.00,30.0,28.7,00.0,38.7,31.9,17.1,-001.5,0019.65,0011.39,0010.57
